FENGYUN 1C DEB, 41006

Orbit data source: Space-Track

FENGYUN 1C DEB, 41006 is space debris in LEO originally from a launch on Mon, 10 May 1999 UTC launched from the Taiyaun Space Center, China (TSC). Fengyun 1C debris stems from the Chinese weather satellite Fengyun-1C, which was intentionally destroyed by a Chinese anti-satellite missile in 2007. This event dramatically increased the amount of space debris, with thousands of trackable fragments posing hazards to satellites and human spaceflight. The Fengyun 1C debris cloud has become a focal point in discussions about space sustainability and the need for international regulations to prevent the creation of new debris.

Loading next visibility...
FENGYUN 1C DEB details
Identifier
41006, 1999-025EXL
Orbit
LEO
Last TLE update2 days ago
Origin
Flag of CNCASC (CN / PRC)
ManufacturerUnknown
MissionSpacecraft
Bus & MotorUnknown
MassUnknown
Launch date (UTC)
1999-05-10 (26 years ago)
Launch vehicleUnknown
Launch site
Taiyaun Space Center, China (TSC)
Object type
Payload
Rocket body
Debris
Shape & HBRUnknown
Radar Cross SectionSmall (<0.1 m²)

Expand to show TLE details & history

TLE from 2 days ago
0 FENGYUN 1C DEB
1 41006U 99025EXL 24335.58201085  .00012565  00000-0  10149-1 0  9997
2 41006 102.3671  82.6293 0197964 181.7811 178.2646 13.81776556522727
Epoch: 2024-11-30T13:58Z
Definitive object data (Epoch: 2024-11-30T13:58:05.737Z)
Latitude-0.00006°
Longitude163.1729°
Altitude1,105.5 km
Speed7.227 km/s
True Right ascension05h 30m 31s
True Declination0° 00' 00"
Sunlit
Object was in full shadow at TLE epoch
Visualization TLE readout
Latitude-8.48661°
Longitude-16.37102°
Altitude818.989 km
Speed7.515 km/s
Apparent Right ascension17h 52m 11s
Apparent Declination-23° 13' 01"
Sunlit
Object is in daylight
Visualization observer readout
Local Sidereal Time06:21:05
Azimuth22.234° NNE
Elevation-72.219°
Doppler factor1
Orbital elements
Apogee altitude1,100.177 km
Perigee altitude809.837 km
Semi-major axis7,333.144 km
Eccentricity0.0197964
Inclination102.3671°
RAAN82.6293°
Arg. of periapsis181.7811°
True anomaly178.33164°
Mean anomaly178.2646°
Eccentric anomaly178.29828°
Mean motion3.45627 °/min
BSTAR0.010149
Orbital period104.16 mins
Loading maneuver chart data...
Loading historical data...
Loading historical data...
Loading historical data...
Loading historical data...
Loading historical data...
Loading historical data...
Loading historical data...

FENGYUN 1C DEB Visibility forecast

Observer location: undefined°, undefined

Span
Click to sort rows by Start time (UTC) header in descending order
Start Az.
Max El. time (UTC)
Max El. Az.
Max El.
End time (UTC)
End Az.
10 mins2024-12-02 20:25:49.870Z20.424° NNE2024-12-02 20:30:49.870Z94.852° ESE44.657°2024-12-02 20:35:49.870Z195.818° SSW
4 mins2024-12-02 22:10:49.870Z327.552° NNW2024-12-02 22:12:49.870Z303.69° NW14.205°2024-12-02 22:14:49.870Z280.314° WNW
10 mins2024-12-03 06:24:49.870Z125.111° SE2024-12-03 06:28:49.870Z69.036° E34.758°2024-12-03 06:34:49.870Z355.297° N
10 mins2024-12-03 08:06:49.870Z203.42° SW2024-12-03 08:11:49.870Z265.96° W28.369°2024-12-03 08:16:49.870Z320.389° NNW
|